M3YFM-13 Weather Reports


time (UTC)temp
F
wind
direction
speed
knots
gust
knots
rain 1hr
in
rain 24hr
in
rain mn
in
humidity
%
barometer
mb
20260506124455 58 115 2.6 7.0 0.00 0.00 0.00 41
20260506123955 58 65 2.6 8.7 0.00 0.00 0.00 41
20260506123454 58 108 4.3 8.7 0.00 0.00 0.00 40
20260506122954 58 56 2.6 6.1 0.00 0.00 0.00 42
20260506122454 57 15 2.6 7.8 0.00 0.00 0.00 44
20260506121954 57 80 1.7 7.0 0.00 0.00 0.00 45
20260506120953 57 72 2.6 6.1 0.00 0.00 0.00 44
20260506120453 56 58 2.6 8.7 0.00 0.00 0.00 46
20260506115951 56 121 2.6 6.1 0.00 0.00 0.00 46
20260506115451 56 101 2.6 7.0 0.00 0.00 0.00 46
20260506114951 57 103 2.6 8.7 0.00 0.00 0.00 45
20260506114450 56 45 1.7 9.6 0.00 0.00 0.00 47
20260506113950 55 75 2.6 8.7 0.00 0.00 0.00 49
20260506112950 55 93 1.7 7.0 0.00 0.00 0.00 49
20260506112449 55 108 2.6 8.7 0.00 0.00 0.00 50
20260506111949 55 87 2.6 7.0 0.00 0.00 0.00 49
20260506111449 53 104 2.6 6.1 0.00 0.00 0.00 50
20260506110948 53 96 2.6 6.1 0.00 0.00 0.00 51
20260506105948 54 28 2.6 7.8 0.00 0.00 0.00 50
20260506105448 53 107 2.6 7.8 0.00 0.00 0.00 51
20260506104947 53 101 3.5 7.8 0.00 0.00 0.00 52
20260506104447 53 97 4.3 7.8 0.00 0.00 0.00 52
20260506103947 52 108 4.3 10.4 0.00 0.00 0.00 52
20260506103446 53 79 4.3 8.7 0.00 0.00 0.00 51
20260506102946 54 83 2.6 7.0 0.00 0.00 0.00 52
20260506102446 53 100 2.6 7.0 0.00 0.00 0.00 50
20260506101946 53 69 2.6 7.8 0.00 0.00 0.00 51
20260506101445 52 101 2.6 7.0 0.00 0.00 0.00 53
20260506100945 52 107 3.5 7.8 0.00 0.00 0.00 54
20260506100445 52 76 2.6 6.1 0.00 0.00 0.00 56
20260506095944 51 101 2.6 6.1 0.00 0.00 0.00 57
20260506095444 51 90 2.6 7.0 0.00 0.00 0.00 57
20260506094944 51 105 2.6 7.0 0.00 0.00 0.00 58
20260506094444 51 103 3.5 7.0 0.00 0.00 0.00 59
20260506093943 52 121 3.5 6.1 0.00 0.00 0.00 59
20260506092943 52 73 1.7 6.1 0.00 0.00 0.00 58
20260506092442 52 114 2.6 5.2 0.00 0.00 0.00 59
20260506091942 53 91 2.6 6.1 0.00 0.00 0.00 60
20260506091442 51 73 0.9 5.2 0.00 0.00 0.00 60
20260506090942 51 60 1.7 4.3 0.00 0.00 0.00 61
20260506090441 51 55 2.6 7.8 0.00 0.00 0.00 62
20260506085941 50 86 1.7 4.3 0.00 0.00 0.00 62
20260506085441 50 76 2.6 7.0 0.00 0.00 0.00 62
20260506084940 50 82 3.5 7.0 0.00 0.00 0.00 62
20260506082939 50 87 2.6 5.2 0.00 0.00 0.00 63
20260506081438 50 118 1.7 6.1 0.00 0.00 0.00 64
20260506080937 49 148 0.9 3.5 0.00 0.00 0.00 65
20260506080437 48 104 1.7 5.2 0.00 0.00 0.00 65
20260506073435 48 98 2.6 5.2 0.00 0.00 0.00 69
20260506072935 48 87 3.5 8.7 0.00 0.00 0.00 69
20260506072435 48 73 3.5 7.0 0.00 0.00 0.00 70
20260506071934 47 104 4.3 8.7 0.00 0.00 0.00 69
20260506070934 48 89 2.6 5.2 0.00 0.00 0.00 71
20260506070434 48 68 2.6 6.1 0.00 0.00 0.00 71
20260506062431 47 103 1.7 4.3 0.00 0.00 0.00 73
20260506061931 46 111 1.7 6.1 0.00 0.00 0.00 73
20260506061431 46 91 1.7 7.0 0.00 0.00 0.00 73
20260506060930 46 104 2.6 6.1 0.00 0.00 0.00 74
20260506060430 46 129 1.7 7.0 0.00 0.00 0.00 74
20260506050927 47 84 1.7 6.1 0.00 0.00 0.00 74
20260506050427 47 87 1.7 6.1 0.00 0.00 0.00 74
20260506044926 47 114 1.7 7.0 0.00 0.00 0.00 73
20260506044426 48 101 3.5 7.8 0.00 0.00 0.00 73
20260506043925 48 97 0.9 4.3 0.00 0.00 0.00 74
20260506043425 48 128 2.6 6.1 0.00 0.00 0.00 74
20260506042925 48 82 1.7 5.2 0.00 0.00 0.00 73
20260506042425 48 136 0.9 3.5 0.00 0.00 0.00 73
20260506041924 48 101 1.7 6.1 0.00 0.00 0.00 72
20260506041424 48 134 0.9 4.3 0.00 0.00 0.00 72
20260506040924 48 103 0.9 4.3 0.00 0.00 0.00 72
20260506040423 48 104 1.7 5.2 0.00 0.00 0.00 72
20260506035923 48 128 1.7 6.1 0.00 0.00 0.00 71
20260506035423 48 115 2.6 6.1 0.00 0.00 0.00 71
20260506034923 48 111 2.6 8.7 0.00 0.00 0.00 71
20260506034422 48 79 3.5 6.1 0.00 0.00 0.00 72
20260506033922 48 59 3.5 7.0 0.00 0.00 0.00 72
20260506033422 48 84 0.9 5.2 0.00 0.00 0.00 74
20260506032921 48 101 0.9 4.3 0.00 0.00 0.00 74
20260506032421 48 89 2.6 6.1 0.00 0.00 0.00 75
20260506031921 48 96 3.5 6.1 0.00 0.00 0.00 74
20260506031421 48 120 2.6 6.1 0.00 0.00 0.00 74
20260506030920 48 86 2.6 7.0 0.00 0.00 0.00 75
20260506030420 48 94 3.5 6.1 0.00 0.00 0.00 74
20260506025920 48 110 1.7 5.2 0.00 0.00 0.00 73
20260506025419 48 82 2.6 7.0 0.00 0.00 0.00 73
20260506024919 48 98 1.7 4.3 0.00 0.00 0.00 72
20260506024419 48 83 2.6 6.1 0.00 0.00 0.00 72
20260506023919 49 103 1.7 5.2 0.00 0.00 0.00 72
20260506023418 49 118 2.6 6.1 0.00 0.00 0.00 71
20260506022918 49 105 0.9 3.5 0.00 0.00 0.00 71
20260506022418 49 111 1.7 6.1 0.00 0.00 0.00 71
20260506021917 49 129 2.6 7.8 0.00 0.00 0.00 71
20260506021417 49 122 2.6 7.8 0.00 0.00 0.00 70
20260506020917 49 118 1.7 7.0 0.00 0.00 0.00 70
20260506020417 50 80 3.5 8.7 0.00 0.00 0.00 70
20260506015916 49 75 1.7 7.0 0.00 0.00 0.00 70
20260506015416 50 149 1.7 4.3 0.00 0.00 0.00 71
20260506014916 50 89 3.5 7.8 0.00 0.00 0.00 71
20260506014416 51 90 2.6 5.2 0.00 0.00 0.00 72
20260506013915 49 128 3.5 6.1 0.00 0.00 0.00 72
20260506013415 49 110 4.3 8.7 0.00 0.00 0.00 72
20260506012915 50 90 4.3 8.7 0.00 0.00 0.00 72
20260506012414 50 97 1.7 7.8 0.00 0.00 0.00 72
20260506011914 50 86 2.6 7.8 0.00 0.00 0.00 73
20260506011414 50 91 3.5 7.8 0.00 0.00 0.00 72
20260506010914 50 97 4.3 7.8 0.00 0.00 0.00 72
20260506010414 51 117 2.6 6.1 0.00 0.00 0.00 72
20260506005913 51 150 2.6 5.2 0.00 0.00 0.00 72
20260506005413 51 149 3.5 9.6 0.00 0.00 0.00 72
20260506004912 51 120 2.6 6.1 0.00 0.00 0.00 72
20260506004412 51 110 4.3 10.4 0.00 0.00 0.00 72
20260506003912 51 118 3.5 7.0 0.00 0.00 0.00 72
20260506003412 51 93 1.7 7.8 0.00 0.00 0.00 72
20260506002911 51 152 3.5 7.8 0.00 0.00 0.00 72
20260506002411 51 115 2.6 6.1 0.00 0.00 0.00 71
20260506001911 51 152 3.5 7.8 0.00 0.00 0.00 71
20260506001410 51 174 3.5 7.8 0.00 0.00 0.00 71
20260506000910 52 146 3.5 8.7 0.00 0.00 0.00 70
20260506000410 52 110 3.5 7.8 0.00 0.00 0.00 70
20260505235910 51 150 4.3 9.6 0.00 0.00 0.00 70
20260505235409 51 138 3.5 8.7 0.00 0.00 0.00 70
20260505234909 52 118 2.6 9.6 0.00 0.00 0.00 69
20260505234407 52 131 4.3 10.4 0.00 0.00 0.00 70
20260505233906 52 124 2.6 7.0 0.00 0.00 0.00 70
20260505233406 52 108 3.5 8.7 0.00 0.00 0.00 70
20260505232906 53 83 2.6 8.7 0.00 0.00 0.00 70
20260505232405 52 134 4.3 9.6 0.00 0.00 0.00 69
20260505231905 52 188 3.5 7.8 0.00 0.00 0.00 69
20260505231405 53 91 2.6 7.8 0.00 0.00 0.00 69
20260505230904 52 127 2.6 7.0 0.00 0.00 0.00 68
20260505230404 52 146 3.5 7.8 0.00 0.00 0.00 68
20260505225904 53 142 3.5 9.6 0.00 0.00 0.00 68
20260505225403 53 148 1.7 6.1 0.00 0.00 0.00 68
20260505224903 53 153 1.7 6.1 0.00 0.00 0.00 67
20260505224403 53 35 0.9 5.2 0.00 0.00 0.00 67
20260505223902 53 129 1.7 5.2 0.00 0.00 0.00 66
20260505223402 53 68 3.5 7.8 0.00 0.00 0.00 66
20260505222902 53 145 3.5 7.8 0.00 0.00 0.00 66
20260505222402 53 146 2.6 7.8 0.00 0.00 0.00 66
20260505221901 54 97 3.5 7.8 0.00 0.00 0.00 65
20260505221401 52 86 2.6 7.0 0.00 0.00 0.00 64
20260505220901 53 89 4.3 8.7 0.00 0.00 0.00 64
20260505220401 53 135 1.7 4.3 0.00 0.00 0.00 64
20260505215900 54 44 0.9 4.3 0.00 0.00 0.00 63
20260505215359 54 52 1.7 4.3 0.00 0.00 0.00 63
20260505214859 54 41 0.9 3.5 0.00 0.00 0.00 63
20260505214359 54 103 0.0 1.7 0.00 0.00 0.00 62
20260505213859 54 52 0.9 2.6 0.00 0.00 0.00 62
20260505213358 54 89 0.9 3.5 0.00 0.00 0.00 62
20260505212858 54 56 0.9 4.3 0.00 0.00 0.00 61
20260505212358 54 46 0.9 5.2 0.00 0.00 0.00 61
20260505211857 54 7 0.9 3.5 0.00 0.00 0.00 60
20260505211357 54 55 0.9 4.3 0.00 0.00 0.00 60
20260505210857 55 46 0.9 3.5 0.00 0.00 0.00 59
20260505210357 54 15 0.9 3.5 0.00 0.00 0.00 59
20260505205856 54 124 0.9 4.3 0.00 0.00 0.00 58
20260505205356 55 38 1.7 6.1 0.00 0.00 0.00 58
20260505204856 55 28 0.9 5.2 0.00 0.00 0.00 58
20260505204356 55 76 0.9 3.5 0.00 0.00 0.00 58
20260505203855 55 55 1.7 5.2 0.00 0.00 0.00 57
20260505203355 55 75 0.9 3.5 0.00 0.00 0.00 57
20260505202855 55 23 0.9 4.3 0.00 0.00 0.00 57
20260505201854 56 63 0.9 4.3 0.00 0.00 0.00 57
20260505201354 56 62 2.6 5.2 0.00 0.00 0.00 56
20260505200854 56 49 1.7 5.2 0.00 0.00 0.00 56
20260505200353 56 82 1.7 5.2 0.00 0.00 0.00 56
20260505195853 56 84 0.9 3.5 0.00 0.00 0.00 55
20260505195353 56 75 0.9 4.3 0.00 0.00 0.00 54
20260505194852 57 65 0.9 5.2 0.00 0.00 0.00 54
20260505194352 56 68 0.9 2.6 0.00 0.00 0.00 54
20260505193852 56 49 0.9 6.1 0.00 0.00 0.00 53
20260505193352 56 59 0.9 3.5 0.00 0.00 0.00 54
20260505192851 57 52 0.9 4.3 0.00 0.00 0.00 54
20260505192351 56 59 1.7 4.3 0.00 0.00 0.00 54
20260505191851 57 30 1.7 4.3 0.00 0.00 0.00 53
20260505191350 57 30 1.7 4.3 0.00 0.00 0.00 52
20260505190850 57 75 1.7 5.2 0.00 0.00 0.00 51
20260505190350 57 94 2.6 7.0 0.00 0.00 0.00 50
20260505185849 57 103 1.7 6.1 0.00 0.00 0.00 50
20260505185349 58 142 1.7 5.2 0.00 0.00 0.00 50
20260505184849 58 93 3.5 7.8 0.00 0.00 0.00 50
20260505184349 58 73 3.5 8.7 0.00 0.00 0.00 50
20260505183348 58 117 2.6 6.1 0.00 0.00 0.00 50
20260505182848 58 60 3.5 8.7 0.00 0.00 0.00 49
20260505181847 58 113 1.7 6.1 0.00 0.00 0.00 48
20260505181347 59 118 1.7 5.2 0.00 0.00 0.00 48
20260505180847 59 108 1.7 5.2 0.00 0.00 0.00 48
20260505180346 59 8 1.7 5.2 0.00 0.00 0.00 48
20260505175846 59 62 1.7 4.3 0.00 0.00 0.00 48
20260505175346 59 90 1.7 5.2 0.00 0.00 0.00 49
20260505174846 59 84 2.6 5.2 0.00 0.00 0.00 49
20260505174345 59 107 2.6 7.0 0.00 0.00 0.00 48
20260505173845 59 21 1.7 5.2 0.00 0.00 0.00 47
20260505173345 59 18 1.7 6.1 0.00 0.00 0.00 47
20260505172844 59 21 1.7 5.2 0.00 0.00 0.00 46
20260505172344 60 70 1.7 5.2 0.00 0.00 0.00 46
20260505171844 59 80 1.7 6.1 0.00 0.00 0.00 46
20260505171344 59 23 3.5 7.0 0.00 0.00 0.00 46
20260505170843 59 34 2.6 6.1 0.00 0.00 0.00 45
20260505170343 59 30 2.6 7.0 0.00 0.00 0.00 46
20260505165843 59 357 2.6 8.7 0.00 0.00 0.00 46
20260505165342 59 89 1.7 6.1 0.00 0.00 0.00 46
20260505164842 59 48 3.5 7.8 0.00 0.00 0.00 46
20260505163842 59 69 2.6 7.0 0.00 0.00 0.00 46
20260505163341 59 100 1.7 5.2 0.00 0.00 0.00 46
20260505162841 59 23 2.6 5.2 0.00 0.00 0.00 46
20260505162340 60 38 2.6 7.8 0.00 0.00 0.00 46
20260505161340 59 89 2.6 7.0 0.00 0.00 0.00 47
20260505160839 59 52 3.5 8.7 0.00 0.00 0.00 46
20260505160339 59 68 2.6 7.8 0.00 0.00 0.00 46
20260505153337 60 76 1.7 7.0 0.00 0.00 0.00 46
20260505152837 60 41 1.7 5.2 0.00 0.00 0.00 46
20260505152337 60 72 2.6 7.0 0.00 0.00 0.00 46
20260505151836 60 96 2.6 6.1 0.00 0.00 0.00 46
20260505151336 60 103 1.7 6.1 0.00 0.00 0.00 47
20260505150836 60 83 2.6 7.8 0.00 0.00 0.00 46
20260505150335 62 110 1.7 5.2 0.00 0.00 0.00 45
20260505140332 62 93 2.6 7.0 0.00 0.00 0.00 45
20260505124828 63 58 1.7 4.3 0.00 0.00 0.00 45